Regional Weather Roundup
Issued by NWS Bismarck, ND

Home | Current Version | Previous Version | Text Only | Print | Product List | Glossary On
Versions: 1 2 3 4 5 6 7 8 9 10 11 12 13 14 15 16 17 18 19 20 21 22 23 24 25 26 27 28 29 30 31 32 33 34 35 36 37 38 39 40 41 42 43 44 45 46 47 48 49 50
000
ASUS43 KBIS 020320
RWRBIS

NWR BROADCAST TEXT
NATIONAL WEATHER SERVICE BISMARCK ND
1000 PM CDT WED APR 01 2015

NOTE: "FAIR" INDICATES FEW OR NO CLOUDS BELOW 12,000 FEET WITH NO
SIGNIFICANT WEATHER AND/OR OBSTRUCTIONS TO VISIBILITY.


CITY           SKY/WX    TMP DP  RH WIND       PRES   REMARKS
WILLISTON      CLEAR     45  23  42 W18       29.68R
MINOT          CLEAR     43  22  43 SW10      29.64R
MINOT AFB      CLEAR     40  26  57 W10       29.63R
BISMARCK       CLEAR     47  23  38 W9        29.74R
DICKINSON      CLEAR     34  19  54 W5        29.74R
GARRISON         N/A     42  26  53 W10       29.68S
HETTINGER ARPT CLEAR     32  19  58 W3        29.79S
JAMESTOWN      MOCLDY    44  28  53 W8        29.66R
BEACH          FAIR      36  23  60 W8        29.77S
CARRINGTON     FAIR      36  28  75 W10       29.67R
CROSBY         FAIR      39  27  60 W14       29.63F
HARVEY         FAIR      39  25  56 W8        29.65S
HAZEN          FAIR      39  23  52 CALM      29.73R
LINTON         FAIR      41  25  52 W5        29.74R
MANDAN         FAIR      41  25  52 W12       29.74R
OAKES            N/A     50  32  50 NW16      29.65F
TIOGA          FAIR      39  23  52 W12       29.69S
WATFORD CITY   FAIR      39  23  52 W8        29.69S
$$

CITY           SKY/WX    TMP DP  RH WIND       PRES   REMARKS
GRAND FORKS    CLOUDY    48  38  68 W13       29.57R
GRAND FORKS AF CLOUDY    49  34  56 NW16G25   29.58R
DEVILS LAKE    CLEAR     39  28  65 W10       29.61S
FARGO          MOCLDY    53  36  52 NW17      29.58S
CANDO          FAIR      36  32  87 W9        29.61S
CAVALIER       FAIR      48  37  66 W15       29.55R
GWINNER        CLEAR     52  32  46 W16         N/A
ROLLA          FAIR      41  27  56 W12       29.59S
WALHALLA         N/A     46  36  66 W10G16    29.56R
$$

CITY           SKY/WX    TMP DP  RH WIND       PRES   REMARKS
ABERDEEN       PTCLDY    51  30  44 NW13      29.69R
MOBRIDGE       CLEAR     42  26  53 NW7       29.73R
BUFFALO          N/A     38  12  34 NW9       29.76R
RAPID CITY     PTCLDY    34  13  41 NW8       29.85R
GLASGOW        CLEAR     45  18  34 W24G33    29.69S
SIDNEY         CLEAR     41  25  52 SW12      29.71F
WOLF POINT     CLEAR     44  27  51 SW13      29.70R
GLENDIVE         N/A     30  23  74 W9        29.76F
MILES CITY     CLEAR     46  12  25 W13       29.81R
BAKER          CLEAR     40  17  39 W9        29.80R
$$

CITY           SKY/WX    TMP DP  RH WIND       PRES   REMARKS
BILLINGS       MOCLDY    42  14  32 W24G30    29.89R
GREAT FALLS    PTCLDY    39  10  30 W18       29.89R
REGINA         CLOUDY    39  28  65 SW15G26   29.52F
ESTEVAN        PTCLDY    41  28  60 W14       29.60F
$$



USA.gov is the U.S. government's official web portal to all federal, state and local government web resources and services.